Regional Weather Roundup
Issued by NWS

Home | Current Version | Previous Version | Text Only | Print | Product List | Glossary Off
Versions: 1 2 3 4 5 6 7 8 9 10 11 12 13 14 15 16 17 18 19 20 21 22 23 24 25 26 27

000
ASUS45 KPSR 260910
RWRAZ

ARIZONA HOURLY REGIONAL WEATHER ROUNDUP
NATIONAL WEATHER SERVICE PHOENIX AZ
200 AM MST THU MAY 26 2016

NOTE: FAIR INDICATES FEW OR NO CLOUDS BELOW 12,000 FEET WITH NO
SIGNIFICANT WEATHER AND/OR OBSTRUCTIONS TO VISIBILITY.

AZZ001>003-036-261000-
NORTHWEST ARIZONA

CITY           SKY/WX    TMP DP  RH WIND       PRES   REMARKS
BULLHEAD CITY  CLEAR     68  32  26 CALM      29.88R
KINGMAN        CLEAR     53 N/A N/A MISG      29.95F
$$

AZZ004>008-015-016-018-261000-
NORTH CENTRAL ARIZONA

CITY           SKY/WX    TMP DP  RH WIND       PRES   REMARKS
GRAND CANYON   MOCLDY    36  21  54 CALM      30.03F
WILLIAMS       PTCLDY    39  25  56 S7        30.12S WCI  34
PRESCOTT       CLOUDY    50  23  34 SW8       30.01F
FLAGSTAFF      PTCLDY    35  22  58 SW5       30.04F WCI  31
PAYSON         CLEAR     52  19  28 CALM      30.03S
PAGE           PTCLDY    64  24  21 SW6       29.90F
$$

AZZ009>014-017-261000-
NORTHEAST ARIZONA

CITY           SKY/WX    TMP DP  RH WIND       PRES   REMARKS
WINSLOW        CLEAR     48  22  35 S10       29.99F
SAINT JOHNS    CLEAR     52  15  23 SW7       30.02S
SHOW LOW       CLEAR     46  10  23 S10       30.07S
$$

AZZ023-261000-
GREATER PHOENIX AREA

CITY           SKY/WX    TMP DP  RH WIND       PRES   REMARKS
PHOENIX        CLEAR     72  29  20 SW3       29.88S
BUCKEYE        CLEAR     63  36  36 S5        29.91S
LUKE AFB       CLEAR     67  33  28 S8        29.88S
DEER VALLEY    CLEAR     67  27  22 SW10      29.89S
SCOTTSDALE     CLEAR     70  27  20 SW6       29.91S
MESA-GATEWAY   CLEAR     63  32  31 S7        29.92F
$$

AZZ027-028-261000-
SOUTHWEST MARICOPA COUNTY AND PINAL COUNTY

CITY           SKY/WX    TMP DP  RH WIND       PRES   REMARKS
CASA GRANDE    CLEAR     64  28  25 SW6       29.93F
GILA BEND      FAIR      66  37  34 SW12      29.90F
$$

AZZ503-504-507>509-261000-
SOUTHEAST ARIZONA

CITY           SKY/WX    TMP DP  RH WIND       PRES   REMARKS
TUCSON         CLEAR     63  22  20 CALM      30.00F
DAVIS-MONTHAN  CLEAR     59  21  23 NW2       29.99S
NOGALES        CLEAR     55  25  31 NE5       30.02F
SIERRA VISTA   CLEAR     58  26  29 NE1       30.05F
DOUGLAS        CLEAR     77  23  13 SW14      30.02F
SAFFORD        CLEAR     66  21  18 NW15      29.93S
$$

AZZ020-021-025-026-031-261000-
SOUTHWEST ARIZONA

CITY           SKY/WX    TMP DP  RH WIND       PRES   REMARKS
YUMA           CLEAR     62  43  49 S3        29.92S
$$

CAZ031-033-041-043-047-048-061-261000-
SOUTHERN CALIFORNIA

CITY           SKY/WX    TMP DP  RH WIND       PRES   REMARKS
DOWNTOWN L.A.  CLEAR     59  52  77 E3        30.05F
L.A. AIRPORT   PTCLDY    58  53  84 CALM      30.06S
SAN DIEGO      MOCLDY    63  52  67 W5        30.09F
BURBANK        CLEAR     56  50  80 SE6       30.05F
ONTARIO        MOCLDY    57  46  66 SW6       30.05F
RIVERSIDE      CLEAR     56  45  66 W3        30.06S
PALM SPRINGS     N/A     67 N/A N/A MISG      29.91F
EL CENTRO NAS  CLEAR     64  41  42 W16       29.94S
IMPERIAL       CLEAR     63  42  46 W10       29.91F
BLYTHE         CLEAR     61  46  57 N6        29.88S
NEEDLES        CLEAR     72  39  30 W10       29.86S
$$

NVZ020-UTZ003-261000-
SOUTHERN NEVADA-UTAH

CITY           SKY/WX    TMP DP  RH WIND       PRES   REMARKS
LAS VEGAS      PTCLDY    64  33  31 S7        29.86F
SALT LAKE CITY PTCLDY    54  45  71 CALM      30.00F
$$

NMZ009-TXZ055-261000-
NEW MEXICO-WEST TEXAS

CITY           SKY/WX    TMP DP  RH WIND       PRES   REMARKS
ALBUQUERQUE    CLEAR     55  14  19 E3        29.98S
EL PASO        CLEAR     75  20  12 W15       29.95F
$$


........................KEY........................
SKY/WX - SKY CONDITION/WEATHER
TMP    - TEMPERATURE IN FAHRENHEIT
DP     - DEW POINT IN FAHRENHEIT
RH     - RELATIVE HUMIDITY IN PERCENT
WIND   - DIRECTION AND SPEED IN MILES PER HOUR (MPH)
VRB    - VARIABLE WIND DIRECTION
PRES   - MEAN SEA LEVEL PRESSURE IN INCHES OF MERCURY
         F - FALLING PRESSURE   R - RISING PRESSURE
         S - STEADY PRESSURE
VSB    - VISIBILITY IN MILES
HX     - HEAT INDEX IN FAHRENHEIT
WCI    - WIND CHILL INDEX IN FAHRENHEIT
TC     - TEMPERATURE IN CELSIUS WHICH IS ALSO KNOWN AS
         TEMPERATURE IN CENTIGRADE
AFB    - AIR FORCE BASE
         LUKE AFB IS LUKE AIR FORCE BASE
         DAVIS-MONTHAN IS DAVIS-MONTHAN AIR FORCE BASE
NAS    - NAVAL AIR STATION
         EL CENTRO NAS IS EL CENTRO NAVAL AIR STATION
N/A    - NOT AVAILABLE





USA.gov is the U.S. government's official web portal to all federal, state and local government web resources and services.